contact:dominique.lefevre@mio.osupytheas.fr, maurice.libes@osupytheas.fr, didier.mallarino@osupytheas.fr
Project:EMSO http://www.emso-fr.org/EMSO-France
Depth: 2436.0 m
Title:EMSO Ligure Ouest : Data MII capteur MICROCAT
DateTime_Computer,Latitude,Longitude,Temperature,Conductivity,Pressure,DateTime_Instrument
DateTime_Computer,Latitude,Longitude,degC,S m-1,dbar,DateTime_Instrument
2023-12-27T00:01:49Z,42.805,6.029,13.3070,4.60200,2470.754,2023-12-27T02:04:20Z
2023-12-27T00:04:52Z,42.805,6.029,13.3079,4.60156,2470.763,2023-12-27T02:07:23Z
2023-12-27T00:07:55Z,42.805,6.029,13.3069,4.60135,2470.717,2023-12-27T02:10:26Z
2023-12-27T00:10:58Z,42.805,6.029,13.3072,4.60181,2470.74,2023-12-27T02:13:29Z
2023-12-27T00:14:01Z,42.805,6.029,13.3056,4.60188,2470.73,2023-12-27T02:16:32Z
2023-12-27T00:17:04Z,42.805,6.029,13.3046,4.60187,2470.74,2023-12-27T02:19:35Z
2023-12-27T00:20:08Z,42.805,6.029,13.3056,4.60176,2470.754,2023-12-27T02:22:38Z
2023-12-27T00:23:11Z,42.805,6.029,13.3052,4.60183,2470.74,2023-12-27T02:25:41Z
2023-12-27T00:26:14Z,42.805,6.029,13.3051,4.60176,2470.717,2023-12-27T02:28:44Z
2023-12-27T00:29:17Z,42.805,6.029,13.3049,4.60193,2470.74,2023-12-27T02:31:48Z
2023-12-27T00:32:20Z,42.805,6.029,13.3065,4.60155,2470.754,2023-12-27T02:34:51Z
2023-12-27T00:35:23Z,42.805,6.029,13.3061,4.60193,2470.717,2023-12-27T02:37:54Z
2023-12-27T00:38:26Z,42.805,6.029,13.3070,4.60175,2470.693,2023-12-27T02:40:57Z
2023-12-27T00:41:29Z,42.805,6.029,13.3064,4.60183,2470.717,2023-12-27T02:44:00Z
2023-12-27T00:44:32Z,42.805,6.029,13.3054,4.60183,2470.717,2023-12-27T02:47:03Z
2023-12-27T00:47:35Z,42.805,6.029,13.3056,4.60170,2470.754,2023-12-27T02:50:06Z
2023-12-27T00:50:38Z,42.805,6.029,13.3051,4.60170,2470.717,2023-12-27T02:53:09Z
2023-12-27T00:53:41Z,42.805,6.029,13.3050,4.60170,2470.74,2023-12-27T02:56:12Z
2023-12-27T00:56:45Z,42.805,6.029,13.3069,4.60178,2470.777,2023-12-27T02:59:15Z
2023-12-27T00:59:48Z,42.805,6.029,13.3069,4.60155,2470.717,2023-12-27T03:02:18Z
2023-12-27T01:02:51Z,42.805,6.029,13.3065,4.60173,2470.74,2023-12-27T03:05:21Z
2023-12-27T01:05:54Z,42.805,6.029,13.3064,4.60178,2470.717,2023-12-27T03:08:25Z
2023-12-27T01:08:57Z,42.805,6.029,13.3072,4.60190,2470.717,2023-12-27T03:11:28Z
2023-12-27T01:12:00Z,42.805,6.029,13.3058,4.60198,2470.717,2023-12-27T03:14:31Z
2023-12-27T01:15:03Z,42.805,6.029,13.3076,4.60178,2470.703,2023-12-27T03:17:34Z
2023-12-27T01:18:06Z,42.805,6.029,13.3056,4.60178,2470.74,2023-12-27T03:20:37Z
2023-12-27T01:21:09Z,42.805,6.029,13.3073,4.60192,2470.777,2023-12-27T03:23:40Z
2023-12-27T01:24:12Z,42.805,6.029,13.3061,4.60191,2470.717,2023-12-27T03:26:43Z
2023-12-27T01:27:15Z,42.805,6.029,13.3052,4.60184,2470.74,2023-12-27T03:29:46Z
2023-12-27T01:30:18Z,42.805,6.029,13.3076,4.60171,2470.74,2023-12-27T03:32:49Z
2023-12-27T01:33:21Z,42.805,6.029,13.3083,4.60167,2470.717,2023-12-27T03:35:52Z
2023-12-27T01:36:25Z,42.805,6.029,13.3069,4.60172,2470.717,2023-12-27T03:38:55Z
2023-12-27T01:39:28Z,42.805,6.029,13.3069,4.60195,2470.74,2023-12-27T03:41:58Z
2023-12-27T01:42:31Z,42.805,6.029,13.3089,4.60156,2470.73,2023-12-27T03:45:02Z
2023-12-27T01:45:34Z,42.805,6.029,13.3077,4.60152,2470.74,2023-12-27T03:48:05Z
2023-12-27T01:48:37Z,42.805,6.029,13.3086,4.60178,2470.73,2023-12-27T03:51:08Z
2023-12-27T01:51:40Z,42.805,6.029,13.3067,4.60199,2470.717,2023-12-27T03:54:11Z
2023-12-27T01:54:43Z,42.805,6.029,13.3079,4.60164,2470.693,2023-12-27T03:57:14Z
2023-12-27T01:57:46Z,42.805,6.029,13.3075,4.60172,2470.74,2023-12-27T04:00:17Z
2023-12-27T02:00:49Z,42.805,6.029,13.3076,4.60175,2470.74,2023-12-27T04:03:20Z
2023-12-27T02:03:52Z,42.805,6.029,13.3052,4.60160,2470.754,2023-12-27T04:06:23Z
2023-12-27T02:06:55Z,42.805,6.029,13.3058,4.60202,2470.754,2023-12-27T04:09:26Z
2023-12-27T02:09:58Z,42.805,6.029,13.3068,4.60202,2470.717,2023-12-27T04:12:29Z
2023-12-27T02:13:02Z,42.805,6.029,13.3085,4.60178,2470.74,2023-12-27T04:15:32Z
2023-12-27T02:16:05Z,42.805,6.029,13.3057,4.60195,2470.717,2023-12-27T04:18:35Z
2023-12-27T02:19:08Z,42.805,6.029,13.3077,4.60144,2470.74,2023-12-27T04:21:38Z
2023-12-27T02:22:11Z,42.805,6.029,13.3071,4.60185,2470.754,2023-12-27T04:24:42Z
2023-12-27T02:25:14Z,42.805,6.029,13.3067,4.60174,2470.763,2023-12-27T04:27:45Z
2023-12-27T02:28:17Z,42.805,6.029,13.3078,4.60190,2470.754,2023-12-27T04:30:48Z
2023-12-27T02:31:20Z,42.805,6.029,13.3079,4.60184,2470.73,2023-12-27T04:33:51Z
2023-12-27T02:34:23Z,42.805,6.029,13.3085,4.60200,2470.726,2023-12-27T04:36:54Z
2023-12-27T02:37:26Z,42.805,6.029,13.3073,4.60179,2470.777,2023-12-27T04:39:57Z
2023-12-27T02:40:29Z,42.805,6.029,13.3069,4.60199,2470.74,2023-12-27T04:43:00Z
2023-12-27T02:43:32Z,42.805,6.029,13.3057,4.60186,2470.763,2023-12-27T04:46:03Z
2023-12-27T02:46:35Z,42.805,6.029,13.3061,4.60170,2470.777,2023-12-27T04:49:06Z
2023-12-27T02:49:39Z,42.805,6.029,13.3051,4.60161,2470.763,2023-12-27T04:52:09Z
2023-12-27T02:52:42Z,42.805,6.029,13.3058,4.60162,2470.754,2023-12-27T04:55:12Z
2023-12-27T02:55:45Z,42.805,6.029,13.3057,4.60189,2470.763,2023-12-27T04:58:15Z
2023-12-27T02:58:48Z,42.805,6.029,13.3066,4.60178,2470.74,2023-12-27T05:01:19Z
2023-12-27T03:01:51Z,42.805,6.029,13.3051,4.60185,2470.787,2023-12-27T05:04:22Z
2023-12-27T03:04:54Z,42.805,6.029,13.3059,4.60186,2470.754,2023-12-27T05:07:25Z
2023-12-27T03:07:57Z,42.805,6.029,13.3056,4.60176,2470.787,2023-12-27T05:10:28Z
2023-12-27T03:11:00Z,42.805,6.029,13.3101,4.60180,2470.777,2023-12-27T05:13:31Z
2023-12-27T03:14:03Z,42.805,6.029,13.3063,4.60191,2470.787,2023-12-27T05:16:34Z
2023-12-27T03:17:06Z,42.805,6.029,13.3080,4.60183,2470.74,2023-12-27T05:19:37Z
2023-12-27T03:20:09Z,42.805,6.029,13.3079,4.60161,2470.763,2023-12-27T05:22:40Z
2023-12-27T03:23:12Z,42.805,6.029,13.3064,4.60179,2470.8,2023-12-27T05:25:43Z
2023-12-27T03:26:15Z,42.805,6.029,13.3084,4.60163,2470.787,2023-12-27T05:28:46Z
2023-12-27T03:29:19Z,42.805,6.029,13.3072,4.60188,2470.8,2023-12-27T05:31:49Z
2023-12-27T03:32:22Z,42.805,6.029,13.3078,4.60183,2470.763,2023-12-27T05:34:52Z
2023-12-27T03:35:25Z,42.805,6.029,13.3069,4.60203,2470.777,2023-12-27T05:37:55Z
2023-12-27T03:38:28Z,42.805,6.029,13.3089,4.60188,2470.8,2023-12-27T05:40:59Z
2023-12-27T03:41:31Z,42.805,6.029,13.3077,4.60203,2470.824,2023-12-27T05:44:02Z
2023-12-27T03:44:34Z,42.805,6.029,13.3059,4.60198,2470.8,2023-12-27T05:47:05Z
2023-12-27T03:47:37Z,42.805,6.029,13.3080,4.60182,2470.787,2023-12-27T05:50:08Z
2023-12-27T03:50:40Z,42.805,6.029,13.3049,4.60203,2470.787,2023-12-27T05:53:11Z
2023-12-27T03:53:43Z,42.805,6.029,13.3095,4.60202,2470.787,2023-12-27T05:56:14Z
2023-12-27T03:56:46Z,42.805,6.029,13.3084,4.60200,2470.824,2023-12-27T05:59:17Z
2023-12-27T03:59:49Z,42.805,6.029,13.3075,4.60207,2470.8,2023-12-27T06:02:20Z
2023-12-27T04:02:52Z,42.805,6.029,13.3084,4.60200,2470.81,2023-12-27T06:05:23Z
2023-12-27T04:05:56Z,42.805,6.029,13.3063,4.60205,2470.787,2023-12-27T06:08:26Z
2023-12-27T04:08:59Z,42.805,6.029,13.3067,4.60176,2470.81,2023-12-27T06:11:29Z
2023-12-27T04:12:02Z,42.805,6.029,13.3089,4.60170,2470.787,2023-12-27T06:14:32Z
2023-12-27T04:15:05Z,42.805,6.029,13.3081,4.60208,2470.847,2023-12-27T06:17:36Z
2023-12-27T04:18:08Z,42.805,6.029,13.3077,4.60196,2470.81,2023-12-27T06:20:39Z
2023-12-27T04:21:11Z,42.805,6.029,13.3082,4.60157,2470.787,2023-12-27T06:23:42Z
2023-12-27T04:24:14Z,42.805,6.029,13.3076,4.60181,2470.81,2023-12-27T06:26:45Z
2023-12-27T04:27:17Z,42.805,6.029,13.3088,4.60195,2470.871,2023-12-27T06:29:48Z
2023-12-27T04:30:20Z,42.805,6.029,13.3093,4.60195,2470.81,2023-12-27T06:32:51Z
2023-12-27T04:33:23Z,42.805,6.029,13.3091,4.60169,2470.857,2023-12-27T06:35:54Z
2023-12-27T04:36:26Z,42.805,6.029,13.3078,4.60170,2470.833,2023-12-27T06:38:57Z
2023-12-27T04:39:29Z,42.805,6.029,13.3076,4.60167,2470.871,2023-12-27T06:42:00Z
2023-12-27T04:42:33Z,42.805,6.029,13.3081,4.60186,2470.847,2023-12-27T06:45:03Z
2023-12-27T04:45:36Z,42.805,6.029,13.3087,4.60184,2470.871,2023-12-27T06:48:06Z
2023-12-27T04:48:39Z,42.805,6.029,13.3066,4.60196,2470.857,2023-12-27T06:51:09Z
2023-12-27T04:51:42Z,42.805,6.029,13.3079,4.60203,2470.847,2023-12-27T06:54:13Z
2023-12-27T04:54:45Z,42.805,6.029,13.3067,4.60206,2470.88,2023-12-27T06:57:16Z
2023-12-27T04:57:48Z,42.805,6.029,13.3090,4.60182,2470.88,2023-12-27T07:00:19Z
2023-12-27T05:00:51Z,42.805,6.029,13.3091,4.60219,2470.904,2023-12-27T07:03:22Z
2023-12-27T05:03:54Z,42.805,6.029,13.3076,4.60235,2470.894,2023-12-27T07:06:25Z
2023-12-27T05:06:57Z,42.805,6.029,13.3084,4.60213,2470.94,2023-12-27T07:09:28Z
2023-12-27T05:10:00Z,42.805,6.029,13.3069,4.60168,2470.894,2023-12-27T07:12:31Z
2023-12-27T05:13:03Z,42.805,6.029,13.3089,4.60215,2470.88,2023-12-27T07:15:34Z
2023-12-27T05:16:06Z,42.805,6.029,13.3060,4.60196,2470.904,2023-12-27T07:18:37Z
2023-12-27T05:19:09Z,42.805,6.029,13.3066,4.60197,2470.904,2023-12-27T07:21:40Z
2023-12-27T05:22:13Z,42.805,6.029,13.3078,4.60198,2470.904,2023-12-27T07:24:43Z
2023-12-27T05:25:16Z,42.805,6.029,13.3063,4.60189,2470.904,2023-12-27T07:27:46Z
2023-12-27T05:28:19Z,42.805,6.029,13.3058,4.60213,2470.904,2023-12-27T07:30:50Z
2023-12-27T05:31:22Z,42.805,6.029,13.3068,4.60209,2470.894,2023-12-27T07:33:53Z
2023-12-27T05:34:25Z,42.805,6.029,13.3063,4.60208,2470.94,2023-12-27T07:36:56Z
2023-12-27T05:37:28Z,42.805,6.029,13.3075,4.60178,2470.904,2023-12-27T07:39:59Z
2023-12-27T05:40:31Z,42.805,6.029,13.3104,4.60199,2470.927,2023-12-27T07:43:02Z
2023-12-27T05:43:34Z,42.805,6.029,13.3081,4.60172,2470.927,2023-12-27T07:46:05Z
2023-12-27T05:46:37Z,42.805,6.029,13.3054,4.60210,2470.94,2023-12-27T07:49:08Z
2023-12-27T05:49:40Z,42.805,6.029,13.3095,4.60190,2470.904,2023-12-27T07:52:11Z
2023-12-27T05:52:43Z,42.805,6.029,13.3093,4.60183,2470.95,2023-12-27T07:55:14Z
2023-12-27T05:55:47Z,42.805,6.029,13.3078,4.60208,2470.94,2023-12-27T07:58:17Z
2023-12-27T05:58:50Z,42.805,6.029,13.3086,4.60211,2470.917,2023-12-27T08:01:20Z
2023-12-27T06:01:53Z,42.805,6.029,13.3074,4.60223,2470.927,2023-12-27T08:04:24Z
2023-12-27T06:04:56Z,42.805,6.029,13.3079,4.60210,2470.904,2023-12-27T08:07:27Z
2023-12-27T06:07:59Z,42.805,6.029,13.3072,4.60207,2470.964,2023-12-27T08:10:30Z
2023-12-27T06:11:02Z,42.805,6.029,13.3095,4.60200,2470.95,2023-12-27T08:13:33Z
2023-12-27T06:14:05Z,42.805,6.029,13.3058,4.60205,2470.95,2023-12-27T08:16:36Z
2023-12-27T06:17:08Z,42.805,6.029,13.3091,4.60199,2470.964,2023-12-27T08:19:39Z
2023-12-27T06:20:11Z,42.805,6.029,13.3100,4.60193,2470.95,2023-12-27T08:22:42Z
2023-12-27T06:23:14Z,42.805,6.029,13.3094,4.60250,2470.94,2023-12-27T08:25:45Z
2023-12-27T06:26:17Z,42.805,6.029,13.3112,4.60215,2470.904,2023-12-27T08:28:48Z
2023-12-27T06:29:20Z,42.805,6.029,13.3111,4.60164,2470.94,2023-12-27T08:31:51Z
2023-12-27T06:32:23Z,42.805,6.029,13.3093,4.60180,2470.973,2023-12-27T08:34:54Z
2023-12-27T06:35:27Z,42.805,6.029,13.3088,4.60178,2470.927,2023-12-27T08:37:57Z
2023-12-27T06:38:30Z,42.805,6.029,13.3096,4.60163,2470.987,2023-12-27T08:41:00Z
2023-12-27T06:41:33Z,42.805,6.029,13.3089,4.60183,2470.964,2023-12-27T08:44:04Z
2023-12-27T06:44:36Z,42.805,6.029,13.3075,4.60194,2470.95,2023-12-27T08:47:07Z
2023-12-27T06:47:39Z,42.805,6.029,13.3099,4.60167,2470.936,2023-12-27T08:50:10Z
2023-12-27T06:50:42Z,42.805,6.029,13.3100,4.60178,2470.973,2023-12-27T08:53:13Z
2023-12-27T06:53:45Z,42.805,6.029,13.3084,4.60162,2470.973,2023-12-27T08:56:16Z
2023-12-27T06:56:48Z,42.805,6.029,13.3092,4.60163,2470.987,2023-12-27T08:59:19Z
2023-12-27T06:59:51Z,42.805,6.029,13.3078,4.60149,2470.95,2023-12-27T09:02:22Z
2023-12-27T07:02:54Z,42.805,6.029,13.3066,4.60160,2470.95,2023-12-27T09:05:25Z
2023-12-27T07:05:57Z,42.805,6.029,13.3048,4.60174,2470.964,2023-12-27T09:08:28Z
2023-12-27T07:09:00Z,42.805,6.029,13.3061,4.60215,2470.95,2023-12-27T09:11:31Z
2023-12-27T07:12:04Z,42.805,6.029,13.3093,4.60169,2470.987,2023-12-27T09:14:34Z
2023-12-27T07:15:07Z,42.805,6.029,13.3052,4.60157,2470.973,2023-12-27T09:17:37Z
2023-12-27T07:18:10Z,42.805,6.029,13.3073,4.60149,2471.01,2023-12-27T09:20:41Z
2023-12-27T07:21:13Z,42.805,6.029,13.3079,4.60145,2470.987,2023-12-27T09:23:44Z
2023-12-27T07:24:16Z,42.805,6.029,13.3075,4.60150,2471.01,2023-12-27T09:26:47Z
2023-12-27T07:27:19Z,42.805,6.029,13.3063,4.60140,2470.997,2023-12-27T09:29:50Z
2023-12-27T07:30:22Z,42.805,6.029,13.3068,4.60126,2470.973,2023-12-27T09:32:53Z
2023-12-27T07:33:25Z,42.805,6.029,13.3062,4.60193,2470.987,2023-12-27T09:35:56Z
2023-12-27T07:36:28Z,42.805,6.029,13.3063,4.60150,2471.01,2023-12-27T09:38:59Z
2023-12-27T07:39:31Z,42.805,6.029,13.3072,4.60156,2470.95,2023-12-27T09:42:02Z
2023-12-27T07:42:34Z,42.805,6.029,13.3076,4.60170,2470.997,2023-12-27T09:45:05Z
2023-12-27T07:45:37Z,42.805,6.029,13.3069,4.60144,2470.997,2023-12-27T09:48:08Z
2023-12-27T07:48:40Z,42.805,6.029,13.3065,4.60161,2470.973,2023-12-27T09:51:11Z
2023-12-27T07:51:44Z,42.805,6.029,13.3060,4.60147,2470.987,2023-12-27T09:54:14Z
2023-12-27T07:54:47Z,42.805,6.029,13.3067,4.60147,2470.987,2023-12-27T09:57:17Z
2023-12-27T07:57:50Z,42.805,6.029,13.3046,4.60141,2471.01,2023-12-27T10:00:21Z
2023-12-27T08:00:53Z,42.805,6.029,13.3073,4.60135,2471.02,2023-12-27T10:03:24Z
2023-12-27T08:03:56Z,42.805,6.029,13.3067,4.60140,2470.973,2023-12-27T10:06:27Z
2023-12-27T08:06:59Z,42.805,6.029,13.3063,4.60167,2470.997,2023-12-27T10:09:30Z
2023-12-27T08:10:02Z,42.805,6.029,13.3072,4.60145,2470.95,2023-12-27T10:12:33Z
2023-12-27T08:13:05Z,42.805,6.029,13.3085,4.60160,2471.02,2023-12-27T10:15:36Z
2023-12-27T08:16:08Z,42.805,6.029,13.3059,4.60165,2470.997,2023-12-27T10:18:39Z
2023-12-27T08:19:11Z,42.805,6.029,13.3087,4.60135,2470.973,2023-12-27T10:21:42Z
2023-12-27T08:22:14Z,42.805,6.029,13.3072,4.60141,2470.997,2023-12-27T10:24:45Z
2023-12-27T08:25:18Z,42.805,6.029,13.3062,4.60172,2471.01,2023-12-27T10:27:48Z
2023-12-27T08:28:21Z,42.805,6.029,13.3087,4.60146,2470.997,2023-12-27T10:30:51Z
2023-12-27T08:31:24Z,42.805,6.029,13.3058,4.60137,2470.997,2023-12-27T10:33:54Z
2023-12-27T08:34:27Z,42.805,6.029,13.3084,4.60142,2470.973,2023-12-27T10:36:58Z
2023-12-27T08:37:30Z,42.805,6.029,13.3058,4.60159,2470.964,2023-12-27T10:40:01Z
2023-12-27T08:40:33Z,42.805,6.029,13.3063,4.60150,2471.02,2023-12-27T10:43:04Z
2023-12-27T08:43:36Z,42.805,6.029,13.3064,4.60159,2470.973,2023-12-27T10:46:07Z
2023-12-27T08:46:39Z,42.805,6.029,13.3057,4.60170,2471.034,2023-12-27T10:49:10Z
2023-12-27T08:49:42Z,42.805,6.029,13.3069,4.60160,2471.01,2023-12-27T10:52:13Z
2023-12-27T08:52:45Z,42.805,6.029,13.3077,4.60158,2470.973,2023-12-27T10:55:16Z
2023-12-27T08:55:48Z,42.805,6.029,13.3094,4.60165,2470.973,2023-12-27T10:58:19Z
2023-12-27T08:58:51Z,42.805,6.029,13.3084,4.60153,2470.987,2023-12-27T11:01:22Z
2023-12-27T09:01:55Z,42.805,6.029,13.3063,4.60149,2470.997,2023-12-27T11:04:25Z
2023-12-27T09:04:58Z,42.805,6.029,13.3114,4.60162,2470.987,2023-12-27T11:07:28Z
2023-12-27T09:08:01Z,42.805,6.029,13.3058,4.60152,2470.997,2023-12-27T11:10:32Z
2023-12-27T09:11:04Z,42.805,6.029,13.3067,4.60184,2470.964,2023-12-27T11:13:35Z
2023-12-27T09:14:07Z,42.805,6.029,13.3058,4.60171,2470.964,2023-12-27T11:16:38Z
2023-12-27T09:17:10Z,42.805,6.029,13.3070,4.60161,2470.964,2023-12-27T11:19:41Z
2023-12-27T09:20:13Z,42.805,6.029,13.3072,4.60165,2470.987,2023-12-27T11:22:44Z
2023-12-27T09:23:16Z,42.805,6.029,13.3092,4.60188,2471.01,2023-12-27T11:25:47Z
2023-12-27T09:26:19Z,42.805,6.029,13.3051,4.60164,2470.95,2023-12-27T11:28:50Z
2023-12-27T09:29:22Z,42.805,6.029,13.3078,4.60169,2471.01,2023-12-27T11:31:53Z
2023-12-27T09:32:25Z,42.805,6.029,13.3085,4.60178,2470.973,2023-12-27T11:34:56Z
2023-12-27T09:35:29Z,42.805,6.029,13.3077,4.60152,2470.987,2023-12-27T11:37:59Z
2023-12-27T09:38:32Z,42.805,6.029,13.3091,4.60169,2470.987,2023-12-27T11:41:02Z
2023-12-27T09:41:35Z,42.805,6.029,13.3103,4.60160,2470.987,2023-12-27T11:44:05Z
2023-12-27T09:44:38Z,42.805,6.029,13.3081,4.60157,2470.997,2023-12-27T11:47:09Z
2023-12-27T09:47:41Z,42.805,6.029,13.3070,4.60177,2470.997,2023-12-27T11:50:12Z
2023-12-27T09:50:44Z,42.805,6.029,13.3077,4.60175,2470.987,2023-12-27T11:53:15Z
2023-12-27T09:53:47Z,42.805,6.029,13.3066,4.60201,2470.973,2023-12-27T11:56:18Z
2023-12-27T09:56:50Z,42.805,6.029,13.3079,4.60147,2470.964,2023-12-27T11:59:21Z
2023-12-27T09:59:53Z,42.805,6.029,13.3081,4.60180,2470.987,2023-12-27T12:02:24Z
2023-12-27T10:02:56Z,42.805,6.029,13.3099,4.60193,2470.94,2023-12-27T12:05:27Z
2023-12-27T10:05:59Z,42.805,6.029,13.3092,4.60167,2470.94,2023-12-27T12:08:30Z
2023-12-27T10:09:02Z,42.805,6.029,13.3093,4.60183,2470.927,2023-12-27T12:11:33Z
2023-12-27T10:12:05Z,42.805,6.029,13.3085,4.60170,2470.95,2023-12-27T12:14:36Z
2023-12-27T10:15:09Z,42.805,6.029,13.3118,4.60147,2470.964,2023-12-27T12:17:39Z
2023-12-27T10:18:12Z,42.805,6.029,13.3119,4.60190,2470.964,2023-12-27T12:20:42Z
2023-12-27T10:21:15Z,42.805,6.029,13.3089,4.60195,2470.95,2023-12-27T12:23:46Z
2023-12-27T10:24:18Z,42.805,6.029,13.3057,4.60166,2470.95,2023-12-27T12:26:49Z
2023-12-27T10:27:21Z,42.805,6.029,13.3083,4.60180,2470.964,2023-12-27T12:29:52Z
2023-12-27T10:30:24Z,42.805,6.029,13.3078,4.60180,2470.95,2023-12-27T12:32:55Z
2023-12-27T10:33:27Z,42.805,6.029,13.3080,4.60192,2470.927,2023-12-27T12:35:58Z
2023-12-27T10:36:30Z,42.805,6.029,13.3089,4.60187,2470.94,2023-12-27T12:39:01Z
2023-12-27T10:39:33Z,42.805,6.029,13.3101,4.60195,2470.927,2023-12-27T12:42:04Z
2023-12-27T10:42:36Z,42.805,6.029,13.3081,4.60190,2470.95,2023-12-27T12:45:07Z
2023-12-27T10:45:39Z,42.805,6.029,13.3101,4.60195,2470.917,2023-12-27T12:48:10Z
2023-12-27T10:48:43Z,42.805,6.029,13.3077,4.60199,2470.927,2023-12-27T12:51:13Z
2023-12-27T10:51:46Z,42.805,6.029,13.3093,4.60228,2470.94,2023-12-27T12:54:16Z
2023-12-27T10:54:49Z,42.805,6.029,13.3073,4.60256,2470.904,2023-12-27T12:57:20Z
2023-12-27T10:57:52Z,42.805,6.029,13.3089,4.60215,2470.964,2023-12-27T13:00:23Z
2023-12-27T11:00:55Z,42.805,6.029,13.3055,4.60214,2470.927,2023-12-27T13:03:26Z
2023-12-27T11:03:58Z,42.805,6.029,13.3091,4.60163,2470.904,2023-12-27T13:06:29Z
2023-12-27T11:07:01Z,42.805,6.029,13.3098,4.60205,2470.94,2023-12-27T13:09:32Z
2023-12-27T11:10:04Z,42.805,6.029,13.3091,4.60189,2470.904,2023-12-27T13:12:35Z
2023-12-27T11:13:07Z,42.805,6.029,13.3078,4.60198,2470.904,2023-12-27T13:15:38Z
2023-12-27T11:16:10Z,42.805,6.029,13.3070,4.60178,2470.88,2023-12-27T13:18:41Z
2023-12-27T11:19:13Z,42.805,6.029,13.3067,4.60194,2470.88,2023-12-27T13:21:44Z
2023-12-27T11:22:16Z,42.805,6.029,13.3107,4.60209,2470.904,2023-12-27T13:24:47Z
2023-12-27T11:25:20Z,42.805,6.029,13.3068,4.60185,2470.88,2023-12-27T13:27:50Z
2023-12-27T11:28:23Z,42.805,6.029,13.3095,4.60185,2470.94,2023-12-27T13:30:53Z
2023-12-27T11:31:26Z,42.805,6.029,13.3072,4.60221,2470.94,2023-12-27T13:33:57Z
2023-12-27T11:34:29Z,42.805,6.029,13.3056,4.60198,2470.927,2023-12-27T13:37:00Z
2023-12-27T11:37:32Z,42.805,6.029,13.3061,4.60203,2470.904,2023-12-27T13:40:03Z
2023-12-27T11:40:35Z,42.805,6.029,13.3063,4.60218,2470.904,2023-12-27T13:43:06Z
2023-12-27T11:43:38Z,42.805,6.029,13.3069,4.60176,2470.88,2023-12-27T13:46:09Z
2023-12-27T11:46:41Z,42.805,6.029,13.3079,4.60170,2470.927,2023-12-27T13:49:12Z
2023-12-27T11:49:44Z,42.805,6.029,13.3069,4.60185,2470.88,2023-12-27T13:52:15Z
2023-12-27T11:52:47Z,42.805,6.029,13.3056,4.60178,2470.894,2023-12-27T13:55:18Z
2023-12-27T11:55:50Z,42.805,6.029,13.3063,4.60217,2470.88,2023-12-27T13:58:21Z
2023-12-27T11:58:54Z,42.805,6.029,13.3049,4.60193,2470.894,2023-12-27T14:01:24Z
2023-12-27T12:01:57Z,42.805,6.029,13.3068,4.60194,2470.894,2023-12-27T14:04:27Z
2023-12-27T12:05:00Z,42.805,6.029,13.3075,4.60168,2470.88,2023-12-27T14:07:31Z
2023-12-27T12:08:03Z,42.805,6.029,13.3083,4.60160,2470.857,2023-12-27T14:10:34Z
2023-12-27T12:11:06Z,42.805,6.029,13.3088,4.60183,2470.88,2023-12-27T14:13:37Z
2023-12-27T12:14:09Z,42.805,6.029,13.3085,4.60194,2470.871,2023-12-27T14:16:40Z
2023-12-27T12:17:12Z,42.805,6.029,13.3082,4.60183,2470.871,2023-12-27T14:19:43Z
2023-12-27T12:20:15Z,42.805,6.029,13.3078,4.60157,2470.894,2023-12-27T14:22:46Z
2023-12-27T12:23:18Z,42.805,6.029,13.3097,4.60185,2470.857,2023-12-27T14:25:49Z
2023-12-27T12:26:21Z,42.805,6.029,13.3091,4.60151,2470.833,2023-12-27T14:28:52Z
2023-12-27T12:29:24Z,42.805,6.029,13.3084,4.60176,2470.847,2023-12-27T14:31:55Z
2023-12-27T12:32:27Z,42.805,6.029,13.3073,4.60152,2470.833,2023-12-27T14:34:58Z
2023-12-27T12:35:31Z,42.805,6.029,13.3085,4.60160,2470.847,2023-12-27T14:38:01Z
2023-12-27T12:38:34Z,42.805,6.029,13.3081,4.60164,2470.82,2023-12-27T14:41:04Z
2023-12-27T12:41:37Z,42.805,6.029,13.3048,4.60137,2470.833,2023-12-27T14:44:08Z
2023-12-27T12:44:40Z,42.805,6.029,13.3050,4.60162,2470.833,2023-12-27T14:47:11Z
2023-12-27T12:47:43Z,42.805,6.029,13.3070,4.60223,2470.857,2023-12-27T14:50:14Z
2023-12-27T12:50:46Z,42.805,6.029,13.3059,4.60183,2470.857,2023-12-27T14:53:17Z
2023-12-27T12:53:49Z,42.805,6.029,13.3093,4.60205,2470.857,2023-12-27T14:56:20Z
2023-12-27T12:56:52Z,42.805,6.029,13.3080,4.60190,2470.847,2023-12-27T14:59:23Z
2023-12-27T12:59:55Z,42.805,6.029,13.3074,4.60184,2470.847,2023-12-27T15:02:26Z
2023-12-27T13:02:58Z,42.805,6.029,13.3069,4.60200,2470.833,2023-12-27T15:05:29Z
2023-12-27T13:06:01Z,42.805,6.029,13.3047,4.60208,2470.833,2023-12-27T15:08:32Z
2023-12-27T13:09:05Z,42.805,6.029,13.3067,4.60178,2470.833,2023-12-27T15:11:35Z
2023-12-27T13:12:08Z,42.805,6.029,13.3069,4.60187,2470.871,2023-12-27T15:14:38Z
2023-12-27T13:15:11Z,42.805,6.029,13.3063,4.60193,2470.824,2023-12-27T15:17:41Z
2023-12-27T13:18:14Z,42.805,6.029,13.3046,4.60195,2470.871,2023-12-27T15:20:45Z
2023-12-27T13:21:17Z,42.805,6.029,13.3058,4.60203,2470.857,2023-12-27T15:23:48Z
2023-12-27T13:24:20Z,42.805,6.029,13.3052,4.60162,2470.833,2023-12-27T15:26:51Z
2023-12-27T13:27:23Z,42.805,6.029,13.3043,4.60167,2470.857,2023-12-27T15:29:54Z
2023-12-27T13:30:28Z,42.805,6.029,13.3046,4.60157,2470.81,2023-12-27T15:32:59Z
2023-12-27T13:33:31Z,42.805,6.029,13.3050,4.60200,2470.833,2023-12-27T15:36:02Z
2023-12-27T13:36:34Z,42.805,6.029,13.3053,4.60217,2470.833,2023-12-27T15:39:05Z
2023-12-27T13:39:37Z,42.805,6.029,13.3056,4.60172,2470.824,2023-12-27T15:42:08Z
2023-12-27T13:42:40Z,42.805,6.029,13.3056,4.60151,2470.847,2023-12-27T15:45:11Z
2023-12-27T13:45:43Z,42.805,6.029,13.3051,4.60190,2470.81,2023-12-27T15:48:14Z
2023-12-27T13:48:46Z,42.805,6.029,13.3070,4.60183,2470.847,2023-12-27T15:51:17Z
2023-12-27T13:51:49Z,42.805,6.029,13.3085,4.60218,2470.787,2023-12-27T15:54:20Z
2023-12-27T13:54:53Z,42.805,6.029,13.3057,4.60208,2470.833,2023-12-27T15:57:23Z
2023-12-27T13:57:56Z,42.805,6.029,13.3056,4.60167,2470.824,2023-12-27T16:00:26Z
2023-12-27T14:00:59Z,42.805,6.029,13.3056,4.60162,2470.81,2023-12-27T16:03:30Z
2023-12-27T14:04:02Z,42.805,6.029,13.3058,4.60174,2470.824,2023-12-27T16:06:33Z
2023-12-27T14:07:05Z,42.805,6.029,13.3043,4.60175,2470.81,2023-12-27T16:09:36Z
2023-12-27T14:10:08Z,42.805,6.029,13.3051,4.60178,2470.8,2023-12-27T16:12:39Z
2023-12-27T14:13:11Z,42.805,6.029,13.3045,4.60163,2470.81,2023-12-27T16:15:42Z
2023-12-27T14:16:14Z,42.805,6.029,13.3048,4.60175,2470.81,2023-12-27T16:18:45Z
2023-12-27T14:19:17Z,42.805,6.029,13.3040,4.60185,2470.833,2023-12-27T16:21:48Z
2023-12-27T14:22:20Z,42.805,6.029,13.3041,4.60181,2470.787,2023-12-27T16:24:51Z
2023-12-27T14:25:23Z,42.805,6.029,13.3056,4.60190,2470.833,2023-12-27T16:27:54Z
2023-12-27T14:28:26Z,42.805,6.029,13.3052,4.60163,2470.787,2023-12-27T16:30:57Z
2023-12-27T14:31:30Z,42.805,6.029,13.3052,4.60200,2470.81,2023-12-27T16:34:00Z
2023-12-27T14:34:33Z,42.805,6.029,13.3067,4.60173,2470.81,2023-12-27T16:37:03Z
2023-12-27T14:37:36Z,42.805,6.029,13.3052,4.60183,2470.81,2023-12-27T16:40:07Z
2023-12-27T14:40:39Z,42.805,6.029,13.3054,4.60183,2470.8,2023-12-27T16:43:10Z
2023-12-27T14:43:42Z,42.805,6.029,13.3055,4.60183,2470.81,2023-12-27T16:46:13Z
2023-12-27T14:46:45Z,42.805,6.029,13.3055,4.60173,2470.8,2023-12-27T16:49:16Z
2023-12-27T14:49:48Z,42.805,6.029,13.3058,4.60169,2470.81,2023-12-27T16:52:19Z
2023-12-27T14:52:51Z,42.805,6.029,13.3054,4.60167,2470.8,2023-12-27T16:55:22Z
2023-12-27T14:55:54Z,42.805,6.029,13.3046,4.60167,2470.81,2023-12-27T16:58:25Z
2023-12-27T14:58:57Z,42.805,6.029,13.3044,4.60178,2470.8,2023-12-27T17:01:28Z
2023-12-27T15:02:00Z,42.805,6.029,13.3046,4.60231,2470.824,2023-12-27T17:04:31Z